Starlink 5450

operational
NORAD ID: 54778 Int'l Des: 2022-175 Owner: SPXS Country: US Constellation: starlink
LEOCIRCULAR

About Starlink 5450

Description loading...

Live Position

Loading 3D Globe...

Upcoming Passes

Altitude History

Altitude vs Time

uPlot chart will show altitude changes over time

Two-Line Element Set

1 54778U 22175W 25303.16379429 .00000209 00000-0 31204-4 0 9997
2 54778 53.2167 255.1393 0001318 91.0192 269.0952 15.08837121160422
Epoch: Oct 30, 2025 • Age: 21 hours

Current Status

Altitude 544.3 km
Velocity 7.60 km/s
Sub-Earth Point 47.80°N, 106.7°W
Launch Date Dec 17, 2022
Age 2.8 years
Type internet

Technical Details

Classification Payload
Mass 305.00 kg
Dry Mass 290.00 kg
Total Mass 305.00 kg
Length 0.20 m
Diameter 2.80 m
Span 9.00 m
Shape Box + pan
Manufacturer SPXS
Bus Type Starlink
Phase Status In Orbit
Owner/State SPXS/US

Large Constellations

Loading constellations...